GFSSW_sfc_dewp_057.txt.gz
Dewpoint
51 51 51 51 52 52 52 52 52 52 53 53 53 54 54 53 53 38 28 41 41 56 54 26 27 26 37 37 39 37 33 27 22 21 19 17 17 17 16 22 29 34 37 40 45
50 51 51 51 51 52 52 52 52 52 53 53 53 53 53 53 44 26 48 50 52 55 34 21 19 21 33 37 38 36 33 31 27 23 20 20 19 16 17 26 31 35 37 39 45
50 51 51 51 51 52 52 52 53 53 53 54 53 53 53 51 33 35 51 47 51 49 27 25 23 18 20 31 34 36 33 32 30 29 26 24 21 19 15 21 30 34 37 38 41
50 51 51 51 51 51 52 52 53 53 54 54 54 53 54 45 12 40 46 48 51 40 20 25 24 20 15 17 28 30 34 34 33 33 31 28 26 23 20 18 27 34 37 38 40
50 50 50 51 51 51 51 52 53 53 53 53 54 54 47 29 14 25 42 46 34 27 20 14 18 22 17 17 19 24 27 30 33 33 34 33 32 31 27 23 19 29 35 37 39
50 50 50 50 50 51 51 53 53 53 53 54 54 54 42 25 23 27 29 29 29 27 25 21 16 14 20 19 17 19 20 23 28 29 32 33 34 34 34 32 27 23 27 32 36
50 50 50 50 50 50 51 52 53 53 53 54 54 47 36 21 25 27 29 26 27 29 27 24 23 21 17 22 24 20 16 18 22 23 27 32 32 34 36 35 33 30 30 32 36
50 50 49 49 50 50 51 51 52 53 54 55 53 45 30 22 25 24 24 25 25 27 29 28 27 25 22 16 13 16 20 14 16 22 24 29 29 32 34 35 35 34 34 35 38
51 51 50 50 50 50 51 51 52 53 53 52 49 39 22 36 22 20 23 22 23 24 25 25 27 23 20 13 6 9 11 17 14 15 21 24 29 32 32 33 35 36 36 34 36
51 50 51 49 50 50 51 51 50 52 50 45 37 36 28 16 20 21 23 26 25 26 25 23 22 19 15 11 4 1 2 6 13 15 15 18 24 29 32 32 33 34 35 35 35
50 49 49 49 49 50 49 42 40 43 36 26 23 23 16 20 20 21 23 24 25 27 23 22 18 16 16 14 11 10 5 4 9 12 15 16 19 23 29 32 33 32 35 37 38
50 49 49 49 50 50 47 33 34 34 31 27 24 20 21 22 22 19 23 22 23 21 20 18 16 18 16 14 15 12 11 11 7 9 16 17 16 21 23 28 31 33 33 34 36
50 50 49 50 50 48 35 35 36 36 30 21 20 19 19 20 21 19 21 20 21 18 16 18 18 18 14 14 14 14 13 13 10 10 15 20 18 20 21 25 28 31 33 34 36
51 50 50 50 47 34 37 38 36 38 27 20 18 19 18 18 19 21 19 23 22 19 19 20 20 17 16 16 14 13 11 11 11 14 14 19 16 22 22 23 27 29 31 32 34
50 50 50 48 42 35 38 38 37 38 21 17 15 20 18 16 16 18 23 20 19 20 21 22 22 20 17 13 13 12 12 13 12 13 17 18 16 20 22 23 24 28 29 31 34
50 50 49 46 43 37 38 39 38 30 16 13 17 16 16 15 16 16 16 18 16 20 21 20 23 20 18 16 13 13 13 13 12 11 12 17 19 17 20 23 23 25 27 29 30
50 49 48 41 37 37 39 36 30 22 17 16 16 16 17 16 16 16 17 15 14 24 20 22 19 18 21 17 17 15 17 13 12 9 14 20 19 23 23 23 23 24 26 27 28
49 49 48 40 39 41 40 31 27 15 18 20 18 19 16 16 16 16 15 12 29 25 26 23 20 25 26 23 15 16 22 21 18 11 12 20 18 20 24 24 23 22 25 26 27
48 46 43 43 42 40 35 34 22 22 20 22 21 18 14 14 15 15 15 13 17 21 25 26 22 25 25 22 24 16 18 26 22 24 24 22 18 21 22 22 23 23 26 31 35
42 40 39 42 44 40 32 28 22 24 25 25 22 20 18 18 18 17 16 17 16 20 23 24 22 23 23 25 24 24 15 22 16 13 15 17 18 16 21 21 23 25 27 31 33
44 35 40 40 39 36 34 23 22 25 28 27 24 24 22 22 20 19 17 16 22 18 20 20 26 22 26 26 26 18 17 19 23 20 17 15 17 23 21 23 26 24 29 30 31
41 32 40 32 34 36 28 22 30 26 28 28 28 26 26 25 24 23 20 19 23 22 21 24 31 21 18 20 26 24 23 27 25 17 17 19 16 27 26 25 26 30 31 30 31
34 32 38 36 37 34 27 24 22 27 28 27 26 27 27 26 27 27 25 23 24 25 28 34 27 23 16 25 24 20 22 28 30 32 28 19 20 29 29 30 30 30 31 30 32
34 34 34 36 36 33 31 28 23 25 27 28 28 28 27 28 27 29 25 33 33 33 36 34 29 27 23 19 32 30 27 19 24 29 23 16 24 28 26 26 25 26 28 30 30
34 34 35 32 33 34 33 30 24 24 27 29 29 27 29 29 27 26 28 31 31 33 33 34 32 27 24 20 20 16 14 14 15 18 17 19 23 30 30 25 24 27 27 27 26
34 31 31 31 32 32 33 28 26 25 27 27 28 28 30 29 29 29 30 32 36 32 33 36 31 28 23 20 15 14 14 14 14 14 14 17 18 21 24 23 22 23 23 24 25
39 39 37 33 31 31 31 30 30 31 29 28 30 30 29 30 31 32 32 33 33 36 34 34 33 31 25 21 22 16 15 14 14 14 14 12 17 19 18 20 23 25 27 26 27

GFSSW_sfc_dewp_060.txt.gz
Dewpoint
51 51 51 52 52 52 52 52 53 53 53 54 54 54 54 54 54 41 38 39 42 58 54 28 23 25 25 36 35 38 35 32 28 25 23 21 20 19 19 17 16 28 34 41 44
51 51 51 52 52 52 52 52 53 53 54 54 54 55 54 55 47 40 47 47 54 57 33 24 20 19 21 28 32 32 34 33 31 29 27 22 21 21 19 18 18 22 35 39 43
51 51 51 51 51 52 52 52 53 53 54 54 54 54 55 53 43 35 52 45 55 51 30 23 24 21 18 19 27 33 34 34 32 31 30 28 26 22 21 18 17 26 33 38 40
51 51 51 51 51 51 52 52 53 53 54 54 54 55 55 49 23 43 53 50 56 44 31 17 18 21 19 17 17 24 30 33 33 32 31 31 31 28 25 23 21 22 33 40 42
51 51 51 50 51 51 51 52 53 53 53 54 55 55 50 40 22 33 54 49 39 31 23 19 14 14 19 17 16 14 17 24 29 32 33 33 32 32 30 30 26 24 26 39 42
51 51 50 50 50 51 52 52 53 53 53 54 55 55 47 32 22 25 26 26 25 24 23 22 19 17 13 11 17 17 15 17 18 22 27 30 32 33 34 33 33 31 29 28 39
52 51 51 51 50 51 51 52 53 53 53 54 55 48 42 29 22 21 25 22 23 23 25 24 22 22 20 17 14 15 18 19 17 17 19 24 28 29 34 35 35 35 33 32 31
51 51 49 50 50 51 51 52 52 53 54 55 55 46 39 21 21 22 19 19 20 22 23 25 25 24 22 20 17 13 13 14 17 17 17 20 21 27 31 34 35 35 36 35 34
51 51 51 50 50 51 51 52 52 53 54 53 49 46 28 33 23 18 17 18 21 21 21 20 22 22 20 15 13 12 6 5 6 12 15 16 19 24 27 31 35 37 38 36 37
50 50 51 50 50 51 51 52 51 52 51 46 41 33 31 16 18 16 19 22 22 24 25 23 20 20 18 14 8 6 5 2 1 3 5 11 15 19 26 28 33 35 36 38 38
51 50 51 51 51 51 49 44 41 44 44 33 26 26 20 17 19 17 19 21 23 24 22 20 17 16 18 18 15 12 11 9 10 7 6 8 12 17 21 25 26 35 36 37 40
51 51 51 51 51 51 47 37 32 33 30 28 25 23 18 19 18 20 18 20 21 17 18 17 15 15 15 16 16 15 13 14 15 13 12 14 11 14 19 23 25 31 36 38 39
51 51 52 51 51 47 40 35 34 34 30 25 18 17 17 18 18 19 19 19 16 15 16 15 15 16 17 17 16 15 14 14 13 14 13 13 13 15 16 22 22 28 34 37 39
51 51 51 51 47 36 37 37 35 36 28 22 16 17 16 17 17 19 19 18 19 17 14 14 15 16 18 17 13 14 14 12 12 12 9 12 9 18 17 22 25 25 31 35 36
51 51 51 50 44 34 35 37 36 37 27 18 15 20 16 16 16 15 20 20 16 14 12 11 16 15 22 20 20 17 13 12 11 12 12 10 10 13 20 20 25 26 29 34 35
51 51 51 46 46 37 34 38 39 33 24 14 15 15 14 15 16 15 15 16 15 12 12 18 21 23 22 24 25 15 13 12 12 10 8 10 10 10 14 22 24 27 27 30 34
51 51 48 44 36 34 37 37 31 27 16 15 15 13 14 17 15 15 15 15 13 17 16 21 15 24 27 24 25 16 15 11 8 8 12 12 7 12 17 20 25 26 28 30 31
49 49 48 40 38 38 38 35 29 21 18 19 18 17 17 14 13 14 15 12 17 20 21 18 17 21 20 19 20 21 18 19 16 16 22 24 21 11 19 19 24 28 28 33 31
48 45 45 44 41 39 34 36 26 21 21 21 21 17 15 14 14 15 15 12 17 16 19 22 16 18 17 18 24 21 17 20 18 21 21 24 27 25 25 25 24 26 26 30 33
43 43 40 42 41 38 34 31 25 21 22 23 22 20 19 18 18 17 16 17 16 20 22 20 18 14 14 17 21 21 22 22 26 21 18 18 20 21 26 26 25 28 31 34 37
44 37 41 39 37 37 36 28 23 20 21 25 25 24 22 20 20 19 19 19 25 26 29 22 24 24 21 18 18 20 17 18 19 20 15 16 16 29 29 31 31 26 30 35 34
42 31 39 35 33 37 30 24 29 20 25 25 27 26 24 23 22 22 22 24 26 27 24 26 29 23 20 19 31 31 25 30 28 20 24 26 25 30 37 37 36 27 30 32 32
38 32 40 38 37 31 29 27 26 22 25 25 26 27 26 25 25 28 27 26 30 30 31 36 25 23 18 18 33 31 27 27 32 31 22 19 21 34 39 38 38 35 31 31 32
40 35 31 29 33 33 31 29 26 23 23 26 28 29 28 27 26 25 24 27 32 32 38 35 30 26 24 23 30 30 27 25 30 28 20 16 20 34 37 38 41 39 32 31 31
36 33 35 29 29 31 32 31 27 24 24 25 27 27 27 27 27 26 26 26 28 36 32 34 32 29 24 24 24 21 24 24 20 14 12 13 15 26 37 39 41 42 35 26 26
36 33 30 31 33 31 32 30 29 29 30 27 25 27 29 29 29 27 27 29 32 33 33 36 31 30 26 23 20 23 24 15 12 13 10 11 13 20 40 40 38 33 23 23 24
37 37 36 33 31 30 29 28 28 29 30 29 29 29 29 30 32 31 31 33 33 34 36 36 32 30 24 22 21 20 25 27 30 29 23 24 30 31 27 27 31 31 29 28 28

GFSSW_sfc_dewp_063.txt.gz
Dewpoint
51 51 52 52 52 52 52 53 53 53 54 54 55 55 55 55 55 47 41 41 44 55 57 33 26 23 25 26 35 34 37 35 34 31 28 27 25 24 23 20 21 21 34 46 48
51 51 51 51 52 52 52 52 53 53 54 55 55 55 55 54 51 47 48 53 54 57 31 28 25 21 20 22 31 32 31 36 36 35 32 31 30 30 23 24 22 21 38 42 46
51 51 51 51 51 51 52 52 52 53 54 54 55 55 55 54 46 37 52 57 55 53 37 30 23 21 20 19 20 30 29 30 34 35 34 32 31 31 28 22 24 23 28 39 42
51 51 51 51 51 51 52 52 52 53 53 54 54 55 56 52 34 35 55 58 57 49 40 32 18 16 20 18 19 16 20 29 32 34 34 33 33 32 32 31 30 30 30 33 40
51 52 52 51 51 51 51 52 52 53 53 53 54 55 52 45 40 46 58 56 47 37 37 26 20 16 10 17 18 17 17 16 18 22 27 32 32 33 32 34 34 32 32 32 36
51 51 50 50 50 51 52 52 52 53 53 53 54 56 49 41 25 31 44 37 35 24 23 23 21 21 19 15 14 13 13 15 17 15 16 17 23 29 32 35 35 34 34 34 34
51 51 51 51 51 51 52 52 53 53 53 54 55 51 43 38 22 21 24 22 22 23 25 25 25 23 22 20 20 18 15 15 14 17 18 18 18 19 26 31 34 34 34 34 35
52 51 50 51 51 51 51 52 52 52 53 55 54 48 41 36 23 21 17 17 20 20 22 21 24 24 23 22 19 15 14 11 14 18 18 18 16 18 22 28 31 32 34 35 37
51 50 50 50 51 52 52 52 52 52 54 54 49 46 39 36 24 19 17 17 22 23 25 21 22 22 22 19 15 14 11 10 10 10 11 12 16 17 19 21 27 27 33 35 36
52 52 50 50 51 52 52 52 52 52 50 47 44 39 37 22 21 18 17 23 23 23 26 26 22 20 20 19 14 11 8 7 7 8 4 2 2 6 15 17 21 25 27 34 36
52 52 52 52 52 52 50 43 41 43 44 41 38 33 26 22 24 18 22 23 24 24 23 21 17 16 17 17 16 15 15 15 15 15 14 14 13 13 14 13 14 21 30 30 32
52 52 52 52 52 52 48 42 32 32 31 31 29 26 23 21 17 19 21 21 22 18 16 16 15 17 16 16 17 17 16 15 16 16 13 14 13 14 14 14 14 14 20 30 33
52 52 52 52 51 49 42 37 34 35 31 28 28 19 21 17 18 19 20 22 18 16 17 17 15 14 15 16 15 16 15 16 16 16 15 14 14 14 14 14 14 15 15 24 35
52 51 51 51 47 43 37 35 36 36 29 24 15 16 16 17 18 19 20 20 20 17 17 15 11 12 19 18 17 17 22 22 18 13 11 14 9 12 13 13 14 15 14 18 26
51 51 51 50 45 41 33 36 37 37 27 21 16 21 17 15 17 18 20 20 18 16 15 12 11 20 19 22 28 26 25 20 19 15 11 10 10 10 15 12 12 14 17 20 24
51 50 50 47 47 44 37 37 40 34 27 14 16 16 16 16 16 18 17 20 18 15 14 16 18 18 28 27 25 26 27 24 19 12 9 9 9 8 9 10 13 14 15 19 24
51 50 48 44 42 41 37 39 32 31 20 17 17 17 16 16 17 16 16 15 15 18 18 20 16 19 25 25 21 20 26 24 18 13 12 12 17 20 25 18 12 13 15 14 16
49 48 48 43 41 41 39 35 29 28 21 21 19 19 18 17 16 16 16 15 22 21 22 17 16 16 20 16 14 17 23 24 18 15 15 16 16 15 23 26 26 25 20 13 15
46 46 46 47 46 42 36 33 31 23 20 21 20 20 18 19 18 18 18 16 19 23 23 23 22 23 19 15 14 14 20 21 23 25 25 23 20 22 23 26 32 34 23 18 19
43 45 44 44 42 41 35 33 29 21 18 20 21 24 22 21 20 19 19 24 25 26 28 26 24 24 22 24 22 25 24 19 30 20 19 18 19 20 35 38 38 38 38 33 27
44 43 43 39 40 39 34 32 28 22 21 21 23 24 24 22 21 20 20 21 29 28 29 27 27 25 24 22 25 27 28 31 33 30 23 19 17 37 38 39 39 37 39 40 36
43 37 41 39 34 41 35 28 32 26 25 24 26 26 26 26 24 23 23 26 29 31 28 33 32 25 23 21 29 29 27 31 28 24 26 25 23 38 39 39 40 38 41 44 37
41 39 43 41 35 33 32 29 29 24 26 26 26 28 29 28 27 28 27 28 32 32 33 34 29 24 21 21 32 28 25 26 33 34 28 24 21 35 37 37 39 41 44 45 43
42 37 38 37 35 32 31 29 28 29 26 25 27 27 29 28 28 27 26 28 29 27 37 37 31 28 24 25 28 26 24 25 25 25 24 22 21 32 37 37 39 41 43 43 41
42 36 34 31 30 31 33 31 28 29 30 31 29 26 25 29 28 27 27 28 29 32 34 34 32 31 29 28 26 24 22 25 22 22 24 27 28 34 38 39 40 42 44 41 36
35 34 35 34 33 32 34 31 28 27 28 28 29 29 29 28 28 26 28 30 31 31 32 36 33 32 30 28 25 22 25 28 25 25 25 26 29 37 39 41 41 38 37 36 34
40 40 36 35 32 29 29 27 28 30 30 30 29 28 29 29 30 32 32 32 32 31 32 37 34 32 27 26 26 23 22 26 29 28 27 29 34 34 38 37 35 33 35 37 43

GFSSW_sfc_dewp_069.txt.gz
Dewpoint
52 52 52 52 52 52 52 52 52 52 53 53 54 54 55 55 55 49 44 38 48 54 54 37 30 28 25 25 32 37 39 37 34 32 32 36 35 35 36 32 34 28 31 42 57
52 52 52 52 51 51 52 52 52 52 53 53 54 54 54 55 51 48 50 53 56 54 24 27 28 24 21 22 25 33 33 36 38 37 37 37 37 36 35 35 35 34 34 40 50
51 51 52 52 52 51 51 51 52 52 52 53 53 54 54 54 47 41 55 55 57 53 38 34 32 26 21 20 22 30 30 36 35 34 34 33 32 33 34 32 35 34 33 33 38
52 52 51 51 51 51 52 51 52 52 52 53 53 54 55 51 33 39 57 59 57 49 41 37 31 20 20 19 19 18 20 19 23 23 28 28 29 29 30 32 34 34 37 33 37
50 50 51 51 51 50 51 51 51 52 52 53 53 55 51 44 43 44 59 57 53 48 39 35 22 20 14 16 18 16 17 18 18 16 17 17 16 17 16 19 22 24 30 36 35
52 52 52 52 51 50 50 50 51 52 52 53 54 55 47 30 39 43 46 46 44 40 31 33 23 23 21 21 19 20 20 18 17 16 16 15 15 18 18 24 21 21 23 30 36
52 53 52 51 50 51 51 51 51 52 52 53 54 52 45 18 37 38 45 37 33 34 24 24 25 22 23 19 22 21 15 15 13 15 15 17 15 15 18 21 21 20 23 26 35
52 53 52 52 51 50 51 52 52 52 53 53 54 49 37 38 43 37 34 29 22 25 23 23 25 23 22 23 19 16 14 6 10 14 12 17 13 18 21 20 22 20 20 22 26
52 53 53 51 52 52 52 52 53 53 53 53 48 44 39 45 28 25 17 16 18 23 25 23 22 22 21 19 18 16 10 12 12 13 13 13 12 14 17 17 18 18 17 19 20
53 53 52 52 51 52 52 51 50 51 51 51 45 40 36 32 24 20 18 18 20 24 24 24 21 18 19 19 15 16 15 14 14 16 16 16 16 18 19 18 18 18 19 20 19
53 53 52 51 52 52 49 40 32 32 43 33 41 38 39 39 27 19 21 25 26 20 17 19 15 14 15 19 18 20 19 17 18 18 18 17 18 19 19 18 17 19 20 21 22
52 52 52 52 52 52 46 39 36 32 30 33 34 38 38 36 29 19 23 21 23 17 20 18 16 17 17 16 19 19 19 19 22 24 22 22 21 21 19 18 18 19 20 20 21
52 51 51 51 51 46 41 39 39 34 30 30 31 31 30 30 28 19 21 21 19 18 17 16 16 17 15 19 20 21 20 22 23 24 23 22 18 18 18 18 17 18 18 19 19
50 50 50 50 43 41 38 40 38 34 30 29 24 24 25 20 19 21 22 20 19 15 17 16 17 16 14 19 25 23 23 25 23 24 21 22 16 18 17 15 16 15 15 16 17
50 50 50 50 42 38 39 42 39 37 19 27 17 18 17 16 19 20 22 20 16 16 15 13 14 14 18 19 27 22 26 23 23 25 24 23 16 16 18 16 15 14 14 22 36
50 49 50 47 44 43 44 39 38 29 19 20 19 20 19 18 18 18 20 21 22 18 17 15 17 18 19 26 26 24 21 23 25 21 19 20 16 15 15 14 18 20 35 39 38
49 49 48 45 35 41 41 38 30 25 25 21 21 21 21 21 21 21 19 24 18 15 15 18 19 20 29 25 21 17 19 14 15 16 14 17 17 15 19 21 26 37 38 39 38
48 48 47 45 41 43 38 32 25 24 22 25 21 22 22 23 21 22 21 19 28 24 21 19 16 22 25 21 19 17 18 16 13 15 13 19 19 19 22 36 39 39 39 38 36
47 43 44 45 45 38 34 29 25 21 20 20 22 24 24 24 23 21 21 24 27 27 22 22 23 26 25 25 23 20 16 21 21 23 20 21 21 24 25 36 37 36 35 34 35
42 43 43 44 40 39 33 32 31 30 25 21 23 25 22 23 23 22 22 28 29 29 27 25 24 26 26 26 25 23 25 21 21 12 14 20 22 21 23 24 35 35 35 38 39
42 39 42 37 40 38 30 32 32 30 30 23 23 23 23 25 25 23 22 26 30 29 30 29 27 26 27 24 22 21 23 28 25 27 20 19 20 27 31 35 35 35 37 39 39
40 33 41 38 34 34 31 31 34 29 32 25 26 26 26 27 26 25 24 25 32 31 28 32 30 27 27 27 27 26 26 26 21 20 26 24 21 27 35 36 37 37 39 40 39
38 39 43 36 26 27 29 30 30 30 31 30 27 28 28 26 25 29 28 30 30 30 30 32 28 25 21 20 26 26 27 28 29 30 25 23 21 31 36 35 38 39 41 41 41
39 29 32 33 32 28 29 29 29 33 31 30 29 29 28 26 28 27 29 30 30 30 34 35 31 29 23 23 26 27 28 28 28 28 25 25 25 27 30 33 36 40 43 45 43
33 31 33 25 25 31 31 31 30 29 29 29 28 29 27 26 27 26 28 28 28 32 33 33 27 31 31 30 31 30 30 30 29 28 25 25 25 26 31 35 37 42 43 44 43
34 33 34 32 33 31 31 29 28 30 29 28 27 29 29 26 27 25 27 28 29 30 30 32 29 32 29 28 30 29 28 29 30 29 27 24 26 31 38 39 39 40 39 42 44
38 37 35 31 30 28 27 30 30 32 31 30 29 28 28 29 32 33 32 31 30 31 30 29 28 28 25 29 29 25 27 26 26 27 28 27 29 37 37 36 35 35 36 41 43

GFSSW_sfc_dewp_072.txt.gz
Dewpoint
52 52 52 51 51 52 51 51 51 52 52 53 53 54 54 54 54 48 43 37 47 52 54 35 27 28 25 24 32 41 40 37 34 31 32 36 36 37 37 35 37 34 34 39 58
51 51 52 51 51 51 51 51 51 52 52 52 53 54 54 54 50 47 50 51 52 54 20 23 27 25 19 22 25 33 34 36 38 36 36 36 37 36 36 34 35 36 38 37 55
50 50 50 51 51 50 50 50 51 51 52 52 53 53 54 54 46 37 55 56 58 50 37 34 34 25 20 20 24 29 32 35 35 33 34 31 29 31 31 30 33 34 34 34 39
52 53 52 52 51 50 50 50 50 51 52 52 53 53 55 49 32 40 57 57 55 46 40 37 29 18 20 19 20 18 23 18 19 18 18 20 21 19 21 25 29 25 25 36 36
52 52 52 52 51 50 50 51 50 51 51 52 52 53 50 40 41 44 58 54 50 47 38 34 21 19 19 19 20 16 19 19 19 18 16 16 16 17 17 19 23 23 24 26 32
52 52 51 51 51 51 50 50 50 50 51 52 52 55 45 23 34 40 47 49 47 43 33 34 23 23 21 21 20 21 20 18 16 15 16 15 14 16 18 22 20 23 23 24 27
52 51 52 51 51 51 52 52 52 52 52 53 53 52 44 15 37 41 43 36 35 36 27 26 25 21 22 18 21 21 14 12 12 14 14 16 15 15 19 21 22 22 22 23 26
51 52 52 51 51 51 52 52 52 52 52 53 53 49 33 33 41 42 38 33 28 29 27 23 25 22 22 22 19 16 11 4 6 14 13 16 13 17 18 18 21 20 19 20 22
51 51 52 51 51 52 53 52 52 52 53 53 48 43 37 44 32 27 27 20 18 23 25 22 22 21 20 18 17 16 12 12 13 15 14 16 13 17 19 19 19 19 21 21 21
51 51 50 50 52 52 52 52 51 52 52 51 47 39 36 35 35 21 18 17 20 24 23 22 21 19 19 17 13 14 16 15 15 16 19 19 19 20 21 20 20 20 20 22 24
50 51 51 51 51 52 49 39 32 32 44 32 36 37 38 38 33 19 20 23 25 19 16 19 16 14 15 17 18 18 18 17 18 19 22 20 21 21 24 21 19 20 21 23 25
50 50 50 50 50 51 45 38 38 34 30 34 34 39 39 37 31 29 23 20 22 17 20 17 15 17 17 16 19 19 17 18 21 23 22 22 21 22 22 22 19 19 21 21 27
50 50 50 50 51 44 41 39 40 35 31 29 32 32 30 32 29 27 21 21 18 16 16 16 15 19 16 17 19 20 19 19 22 25 25 23 21 20 19 21 21 19 20 21 21
48 49 50 50 43 40 37 41 40 34 27 26 23 23 28 25 22 23 21 19 19 15 16 15 16 16 15 18 23 21 22 24 23 21 18 23 19 19 18 19 19 17 17 18 19
49 49 50 50 39 37 39 42 39 35 16 25 17 18 17 16 17 19 23 20 17 16 15 13 15 14 15 16 25 18 24 23 22 22 24 23 20 18 18 17 19 18 16 25 37
49 49 50 47 43 43 43 40 38 25 18 21 21 20 20 20 19 18 21 21 21 16 18 15 17 16 16 23 27 25 20 18 23 21 17 18 19 16 16 16 19 19 25 36 38
49 49 47 44 35 41 41 37 28 23 25 21 21 21 22 24 22 23 23 24 17 15 14 18 19 20 28 23 20 19 17 14 10 13 13 18 18 17 20 20 24 24 34 38 38
49 47 47 44 42 43 37 31 24 22 20 24 21 21 23 24 23 22 21 23 27 22 21 19 16 19 25 21 21 19 19 17 12 15 11 15 15 16 21 23 33 39 39 38 37
47 43 44 45 45 38 34 26 23 23 22 20 22 24 23 24 24 22 21 23 26 26 21 22 23 26 25 25 23 21 17 20 17 20 18 19 20 21 21 26 36 36 36 35 36
42 43 42 40 40 38 32 30 30 30 28 22 21 24 22 22 23 23 23 27 28 29 27 25 23 26 26 26 25 23 23 20 19 12 10 16 19 19 22 21 29 33 32 34 39
41 38 41 41 40 37 29 31 33 31 30 23 23 22 22 23 25 24 23 24 30 29 28 27 26 25 27 25 23 20 22 27 23 21 16 16 15 26 25 26 29 32 34 37 39
40 32 39 38 32 32 29 31 34 30 32 29 26 24 25 26 25 25 25 25 30 30 27 30 28 26 26 27 26 23 24 24 21 20 25 23 20 25 27 29 35 35 34 38 41
37 38 42 34 25 25 27 29 30 30 31 30 28 28 28 25 25 28 29 30 30 28 31 32 28 23 20 20 26 26 27 28 29 29 25 22 19 26 33 34 31 33 38 40 43
35 27 30 32 31 27 28 28 29 33 31 29 28 29 28 26 27 27 28 31 30 29 32 36 30 26 21 20 23 25 26 27 30 27 24 24 23 26 28 30 33 37 40 42 44
33 30 32 21 24 29 31 30 30 29 30 29 27 28 27 25 26 26 27 28 29 31 30 31 27 30 29 29 30 30 30 29 28 28 28 26 26 27 30 31 37 40 42 40 38
32 31 33 30 32 30 30 28 27 30 30 28 27 28 28 27 27 26 26 27 28 29 30 35 28 30 29 31 29 25 26 28 29 29 29 30 30 32 31 38 38 37 37 37 40
37 36 36 30 29 28 25 28 30 32 32 31 29 29 28 28 29 30 30 31 31 29 29 29 28 27 21 25 27 25 26 26 27 29 30 28 29 31 34 37 35 35 37 38 38

GFSSW_sfc_dewp_075.txt.gz
Dewpoint
50 50 50 50 50 50 50 50 51 51 52 52 53 53 54 54 53 49 41 35 46 55 53 26 24 25 24 25 34 44 33 29 31 30 28 34 33 36 37 36 35 35 34 34 36
53 52 52 51 50 50 50 50 50 51 52 52 53 53 54 53 50 47 48 50 52 54 16 17 25 25 19 23 29 33 28 28 35 33 32 34 35 33 33 34 33 34 34 30 29
53 52 52 52 52 52 50 50 50 50 51 52 52 53 54 53 45 34 55 56 56 48 34 30 32 24 17 22 25 30 27 34 36 35 30 31 29 31 32 32 33 30 26 25 29
53 53 52 52 52 51 51 50 50 51 51 52 52 52 53 52 27 41 58 57 56 42 38 35 28 19 21 17 20 21 25 22 27 21 19 22 19 22 26 29 28 23 25 26 28
52 52 52 52 52 51 50 51 50 50 50 51 52 53 50 34 36 42 58 54 46 41 33 29 23 19 17 19 20 18 18 19 19 17 17 18 17 19 22 25 23 23 24 24 25
51 51 52 52 52 51 50 50 52 50 51 51 52 53 45 17 34 42 48 48 44 39 31 32 23 23 22 21 20 20 19 18 17 16 16 15 16 17 19 24 21 22 24 23 28
53 51 51 51 51 51 51 52 52 51 52 52 52 51 41 13 36 42 42 36 36 35 26 26 25 20 23 19 21 21 16 14 12 13 14 15 14 15 21 22 22 30 31 23 24
53 52 51 50 50 51 52 52 52 52 52 52 53 51 31 28 37 41 40 34 34 33 29 24 25 23 23 23 20 17 14 5 10 15 15 15 10 16 22 23 21 23 22 23 23
50 49 51 51 51 51 52 52 53 53 53 53 50 44 34 44 33 25 29 20 16 22 25 22 24 23 22 19 18 18 12 15 15 18 18 17 17 19 23 24 25 27 25 22 23
50 51 51 50 51 52 52 51 54 54 52 51 47 40 36 33 37 26 22 18 16 23 22 24 23 21 20 17 11 14 15 16 15 16 19 18 18 20 22 23 24 26 27 26 25
49 49 50 50 51 52 50 42 35 34 45 32 34 36 35 38 35 20 18 21 23 21 17 21 20 19 16 18 17 17 18 16 17 18 21 19 19 19 21 23 22 23 28 30 29
48 49 49 50 51 52 47 38 38 38 33 33 35 36 37 36 30 27 22 19 20 17 19 18 14 17 17 17 17 19 17 16 19 21 20 18 19 23 23 25 25 24 24 30 30
48 48 49 50 51 45 41 39 41 36 32 30 31 31 28 32 29 27 22 20 18 17 17 16 14 19 17 15 18 19 18 18 17 21 21 22 14 19 21 20 24 25 25 26 27
48 48 49 50 44 41 38 42 41 37 26 22 21 25 29 28 23 28 21 20 18 17 17 17 16 15 15 15 19 16 21 19 21 18 11 20 8 16 18 21 21 23 24 24 25
48 49 50 50 41 38 41 43 39 39 16 22 17 20 19 18 17 17 22 20 18 17 17 13 14 15 15 14 21 16 23 22 20 18 20 15 16 14 21 17 19 22 24 26 29
49 50 50 47 45 42 42 41 41 28 16 19 20 20 21 22 19 20 19 21 20 17 18 16 17 16 16 19 25 24 21 20 22 19 12 14 14 10 14 19 21 20 22 27 34
49 50 48 43 36 40 42 40 31 23 23 20 19 20 21 23 21 23 22 21 17 16 17 17 17 18 26 22 21 20 21 14 10 8 5 19 15 14 20 20 19 19 23 31 36
48 48 48 43 45 45 40 34 28 23 19 22 19 21 21 23 23 23 21 21 27 21 21 17 14 19 24 21 18 21 21 17 13 7 6 14 12 12 19 21 23 25 34 37 35
47 46 46 46 45 41 36 35 26 23 25 24 20 22 23 23 23 23 22 21 24 27 23 25 21 25 25 25 23 21 20 22 19 19 17 14 14 17 18 21 26 28 34 32 35
44 44 43 43 43 41 34 30 29 29 27 25 20 23 21 21 21 23 24 25 26 28 29 25 21 25 25 26 25 25 25 23 28 18 14 9 12 12 17 19 25 26 29 32 34
43 40 42 41 43 38 34 30 32 32 29 28 21 22 22 21 23 23 23 24 28 29 29 28 27 23 27 24 20 23 24 28 27 24 15 10 11 23 23 23 27 29 33 30 33
43 34 42 40 34 35 31 31 33 28 31 30 27 25 24 26 26 25 23 24 30 30 28 31 31 24 23 24 27 26 25 26 23 17 23 21 19 24 26 26 33 30 28 31 39
39 39 43 38 32 27 26 26 29 26 30 30 28 27 28 27 26 27 27 29 30 30 31 35 29 22 19 24 29 27 26 26 28 29 25 22 19 26 29 28 28 31 33 37 38
33 28 28 33 32 27 26 23 29 31 30 29 28 29 29 27 28 27 27 30 29 29 34 35 32 26 21 18 28 25 25 26 27 29 24 23 23 26 29 30 32 34 36 39 39
34 32 34 20 24 29 31 29 27 26 30 30 28 28 28 27 26 26 28 28 28 30 31 33 30 29 28 27 26 25 23 23 25 28 26 26 26 28 30 32 34 36 38 37 37
30 28 33 31 32 31 30 26 28 28 29 27 28 28 29 28 28 27 27 27 28 28 32 36 28 28 27 28 28 28 27 27 26 27 25 27 28 32 32 32 33 35 37 37 37
37 36 37 27 28 28 23 25 29 31 27 30 30 30 28 27 29 31 32 32 31 31 31 33 31 29 22 22 24 22 23 24 24 26 28 26 26 29 31 32 33 35 37 37 38